Weather in Ottawa

Canada     45°24′06″N   75°41′58″W
temp.,
°C
wind,
m/s
gust,
m/s
humid.,
%
clouds,
%
prec.,
mm/h
press.,
hPa
HPBL,
m
3 march, wed
wed301:00−6ssw3996100 3.8 1011513
04:00−6sw3109397 0.4 1009377
07:00−8wsw239691 0.5 101066
10:00−2wnw249479 0.1 1009422
13:00−1wnw249976 0.1 1010607
16:000nw249699 0.1 1010563
19:00−3nne239699 0.3 101284
22:00−7nnw358889 0.1 1013130
4 march, thu
thu401:00−11nnw388646 0.1 1015204
04:00−14nw37890 0.0 1016171
07:00−16nw412870 0.0 1018402
10:00−13nw511780 0.0 1017648
13:00−9nw611760 0.0 1016852
16:00−9nw7127710 0.0 10151040
19:00−12wnw5148127 0.0 1015939
22:00−12nw61477100 0.0 1015951
5 march, fri
fri501:00−13wnw61477100 0.0 1015815
04:00−14wnw51377100 0.0 1014750
07:00−16wnw5147990 0.0 1014650
10:00−12wnw611783 0.0 1013868
13:00−8wnw6118333 0.0 10121084
16:00−8nw61183100 0.2 10111397
19:00−11nw4128599 0.3 1014701
22:00−13wnw4118465 0.0 1015376
6 march, sat
sat601:00−14wnw399066 0.0 1015296
04:00−14wnw31091100 0.1 1016417
07:00−16wnw4118866 0.1 1018348
10:00−12wnw588233 0.0 1018997
13:00−9wnw588367 0.1 10181048
16:00−8wnw5784100 0.1 10181024
19:00−12wnw239299 0.1 102037
22:00−14wnw239190 0.0 102244
7 march, sun
sun701:00−16nw239252 0.0 102321
04:00−18nw23910 0.0 102522
07:00−19nw23910 0.0 102741
10:00−13nw34810 0.0 1028598
13:00−9nw247948 0.0 1027759
16:00−8wnw2484100 0.1 1027717
19:00−12w2294100 0.1 102928
22:00−14nw229331 0.0 103020